Regional Weather Roundup
Issued by NWS Wakefield, VA

Home | Current Version | Previous Version | Text Only | Print | Product List | Glossary Off
Versions: 1 2 3 4 5 6 7 8 9 10 11 12 13 14 15 16 17 18 19 20 21 22 23 24 25 26 27

000
ASUS41 KAKQ 180110
RWRAKQ

REGIONAL WEATHER ROUNDUP
NATIONAL WEATHER SERVICE WAKEFIELD VA
900 PM EDT THU APR 17 2014

Note: "fair" indicates few or no clouds below 12,000 feet with no
significant weather and/or obstructions to visibility. * = Denotes
station may not report precipitation (e.g., rain,snow,etc.),
thunder or fog.

VAZ042-051-052>054-056-180200-
NORTHERN VIRGINIA

CITY           SKY/WX    TMP DP  RH WIND       PRES   REMARKS
WASH NATIONAL  PTCLDY    47  32  56 E14       30.57S
DULLES         CLEAR     45  31  58 E8        30.54S
FORT BELVOIR   CLEAR     46  32  59 VRB6      30.57R
QUANTICO       CLEAR     48  35  60 E13       30.57R
FREDERICKSBRG* CLEAR     48  36  61 E12       30.54S
STAFFORD*      MOCLDY    47  37  66 SE6       30.58S
WARRENTON      CLEAR     45  38  76 E5        30.53R
CULPEPER*      CLEAR     48  32  53 CALM      30.53R
MANASSAS*      CLEAR     46  34  61 E9        30.54S
LEESBURG*      CLEAR     46  34  61 SE9       30.55R
WINCHESTER     CLEAR     46  30  53 SE8       30.50R
$$

VAZ048-049-060>072-079>083-180200-
CENTRAL AND SOUTH CENTRAL VIRGINIA...AND NORTH CENTRAL NORTH CAROLINA

CITY           SKY/WX    TMP DP  RH WIND       PRES   REMARKS
RICHMOND       PTCLDY    47  34  60 E10       30.53R
CHESTERFIELD*  NOT AVBL
HANOVER        CLEAR     46  33  60 VRB6      30.54S
TAPPAHANNOCK*  CLEAR     46  32  58 E6        30.55S
CHARLOTTSVILLE CLEAR     50  32  50 E12G17    30.50R
ORANGE*        CLEAR     46  32  57 E6        30.53R
LOUISA*        CLEAR     46  34  61 E6        30.51R
FARMVILLE*     CLEAR     52  32  46 E5        30.46R
SOUTH HILL*    CLEAR     52  37  58 E3        30.53S
ROANOKE RAPIDS CLEAR     50  37  62 NE8       30.50R
RALEIGH        PTCLDY    53  37  54 E3        30.45R
$$

VAZ088>098-180200-
SOUTHEAST VIRGINIA

CITY           SKY/WX    TMP DP  RH WIND       PRES   REMARKS
NORFOLK        CLOUDY    44  37  76 NE18      30.52F
VIRGINIA BEACH CLOUDY    45  37  73 NE18G26   30.52F
NORFOLK NAVAL  MOCLDY    46  37  71 NE17G30   30.54F
WEST POINT*    PTCLDY    46  35  66 E7        30.56S
NEWPORT NEWS   LGT RAIN  48  37  65 E17       30.54S
LANGLEY AFB    MOCLDY    45  39  79 E21       30.54F
FORT EUSTIS    PTCLDY    45  38  76 E10       30.52F
WILLIAMSBURG*    N/A     45  39  81 E6        30.54S
FRANKLIN*      MOCLDY    45  39  81 NE6       30.53R
WAKEFIELD      CLEAR     45  37  73 CALM      30.53S
$$

VAZ020-022-025-037-045-180200-
WESTERN AND SOUTHWEST VIRGINIA

CITY           SKY/WX    TMP DP  RH WIND       PRES   REMARKS
STAUNTON*      CLEAR     48  26  42 CALM      30.49R
HOT SPRINGS VA CLEAR     39  21  48 SE8       30.46S
LYNCHBURG      CLEAR     51  27  39 CALM      30.48R
DANVILLE       CLEAR     48  36  63 CALM      30.47R
MARTINSVILLE     N/A     46  33  59 CALM      30.47S
ROANOKE        CLEAR     51  23  33 E5        30.48R
BLACKSBURG     CLEAR     46  27  46 SE3       30.49R
DUBLIN*        CLEAR     46  26  45 E5        30.45R
MARION*        CLEAR     47  22  37 NE9       30.43F
HILLSVILLE*    CLEAR     46  12  25 E7        30.45F
RICHLANDS*     CLEAR     54  24  31 SE10      30.36S
WISE*          CLEAR     55  21  26 S3        30.35R
ABINGDON*      CLEAR     55  23  28 SE8       30.35R
$$

MDZ021>025-VAZ099-100-180200-
SOUTHERN MARYLAND AND THE DELMARVA PENINSULA

CITY           SKY/WX    TMP DP  RH WIND       PRES   REMARKS
PATUXENT RIVER MOCLDY    42  31  64 E14       30.58S
BAY BRIDGE APT CLEAR     41  32  70 E13       30.60S
LEONARDTOWN    CLEAR     41  32  70 E6        30.59S
DOVER          PTCLDY    40  31  70 NE6       30.58S
GEORGETOWN     CLOUDY    42  31  64 E14       30.61F
EASTON         PTCLDY    41  32  70 E9G17     30.63F
CAMBRIDGE      CLOUDY    43  32  65 E9        30.59S
SALISBURY      CLOUDY    43  32  65 E14G20    30.59S
OCEAN CITY     CLOUDY    43  32  65 NE14G23   30.59F
WALLOPS ISLAND MOCLDY    44  34  67 E20       30.57F
ACCOMACK*      CLEAR     41  32  70 NE10      30.55F
$$

NCZ012>017-030>032-180200-
EASTERN NORTH CAROLINA

CITY           SKY/WX    TMP DP  RH WIND       PRES   REMARKS
ELIZABETH CITY CLOUDY    46  40  79 NE21G26   30.50S
AHOSKIE*       CLEAR     46  37  70 NE7       30.52R
EDENTON*       MOCLDY    46  40  81 NE9G16    30.50R
CURRITUCK*     CLOUDY    46  39  77 NE17G24   30.51S
KILL DEVIL HLS CLEAR     46  42  88 N9G24     30.45S
MANTEO         PTCLDY    46  43  89 NE18G29   30.46F
CAPE HATTERAS  CLEAR     50  47  89 NE12G22   30.42R
GOLDSBORO      CLEAR     55  46  72 E13       30.44R
WASHINGTON     CLEAR     49  42  77 NE8       30.48R
GREENVILLE     CLEAR     50  41  71 E7        30.47R
NEW BERN       MOCLDY    53  42  66 NE17G23   30.47R
WILMINGTON     CLEAR     58  47  66 NE10      30.41R
$$

VAZ048-180200-
ELSEWHERE

CITY           SKY/WX    TMP DP  RH WIND       PRES   REMARKS
HARRISBURG PA  PTCLDY    50  33  52 S9        30.55R
BALTIMORE      PTCLDY    44  32  62 SE13      30.57S
ANNAPOLIS      CLEAR     44  34  67 E14       30.59S
ANDREWS AFB    CLEAR     43  32  64 E9        30.56F
WILMINGTON DE  CLEAR     42  29  59 E14       30.62S
PHILADELPHIA   PTCLDY    42  27  55 E12       30.63F
WILDWOOD NJ*   CLOUDY    41  28  60 NE13G18   30.62F
ATLANTIC CITY  PTCLDY    37  30  75 E9        30.63S
HENDERSON NC   CLEAR     51  37  60 E7        30.47R
GREENSBORO     PTCLDY    52  27  38 E6        30.42S
ROCKY MOUNT      N/A    N/A N/A N/A MISG      30.48R
FAYETTEVILLE   CLEAR     54  43  66 NE7       30.41S
CHARLOTTE      PTCLDY    59  26  28 E5        30.41R
$$

VAZ100-180200-
MARINE

STATION/POSITION TIME  TEMP    WIND        PRES    WAVE   SWELL
                       AIR SEA DIR/SP/G            HT/PER HT/PER
                 (UTC) (F)     (DEG/KT/KT) (MB)    (FT/S) (FT/S)
44066 TX TWR #4  0100   40 45   60/ 21/ 25 1035.7F   9/ 8
CAPE MAY NJ      0100   41 52   80/  7/ 14 1036.4F
LEWES DE         0100   42 49   90/ 14/ 18 1035.8S
15NM E FENWICK I 0100   42 45              1035.5F   8/ 8
OCEAN-CITY-INLET 0100   42 47   70/ 11/ 16 1035.5F
WACHAPREAGUE VA  0100   44 54   40/ 22/ 26 1033.9F
THOMAS POINT MD  0100   43 52  100/ 17/ 19 1036.1F
GOOSES REEF MD   0100   44      90/ 16/ 19 1036.3S
COVE POINT MD    0100   42      90/ 16/ 18 1035.4F
SOLOMONS ISLAND  0100      53                N/A
BISHOPS HEAD MD  0100   43 54   80/ 13/ 15 1035.1F
PINEY POINT MD   0100           80/ 10/ 13   N/A
POTOMAC MD       0100   45      90/ 16/ 19 1034.2S
CAMBRIDGE MD     0100   43 56   60/ 15/ 21 1035.3F
LEWISETTA VA     0100   45 53   80/ 17/ 20 1034.6S
RAPPAHANNOCK LGT 0100           50/ 18/ 21 1034.7F
STINGRAY PT      0100   45      80/ 16/ 19 1034.3S
YORK RVR RNG VA  0100   45      80/ 19/ 21 1033.4S
YORKTOWN VA      0100   46 55   70/ 19/ 21 1034.0S
JAMESTOWN VA     0100   46     110/  8/ 16   N/A
DOMINION TERM VA 0100   46      60/ 12/ 18 1033.9S
KIPTOPEKE VA     0100      53   60/ 11/ 19   N/A
CHES BAY BRIDGE  0100   44 51   40/ 23/ 27 1033.3F
CAPE HENRY VA    0100   44      40/ 23/ 27   N/A
CHESAPEAKE LGHT  0000   44      40/ 26/ 28 1033.8F
WILLOUBY STN VA  0100   45      60/ 19/ 22 1032.8F
S CRANEY ISL VA  0100           20/ 15/ 25 1033.8S
CAPE HENRY BUOY  0100      47                N/A     7/ 6   2/11
1ST LANDING BUOY 0100      46                N/A     7/10   7/10
64NM E OF VA BCH 0100   51 54   30/ 23/ 27 1031.0F   9/11   7/11
DUCK PIER NC     0100   46 51   20/ 26/ 31 1030.8S
44100 DUCK FRF   0100      48                N/A    10/ 8   2/11
44056 DUCK FRF   0000      50                N/A     8/ 7   2/11
OREGON INLET NC  0100   47 52   10/ 15/ 22 1030.7S
HATTERAS NC      0100   52 56   20/ 14/ 21 1030.1R
CAPE LOOKOUT NC  0000   55      20/ 16/ 19 1029.3F
FRYING PAN SHLS  0100   60 64   60/ 21/ 27 1027.9R   9/ 7   2/15
$$



USA.gov is the U.S. government's official web portal to all federal, state and local government web resources and services.